Погода в Зуэрате

Мавритания     23°07′51″N   12°02′49″W
темп.,
°C
ветер,
м/с
пор.,
м/с
влажн.,
%
обл.,
%
осадки,
мм/ч
давл.,
гПа
погр.,
м
1 июля, пт
пт100:00+28с611254 0.0 1012235
03:00+24с7104243 0.0 1012336
06:00+21с710535 0.0 1013326
09:00+24с78410 0.0 1014488
12:00+30с66210 0.0 1013789
15:00+35с661311 0.0 10111108
18:00+35с551228 0.0 10111371
21:00+31ссз441635 0.0 101338
2 июля, сб
сб200:00+28ссз510235 0.0 1014159
03:00+26ссз611345 0.0 1013234
06:00+23с69465 0.0 1014208
09:00+26ссв67385 0.0 1015410
12:00+32ссв55221 0.0 1015810
15:00+37ссв54150 0.0 10131179
18:00+37ссв54130 0.0 10121297
21:00+33ссз56161 0.0 101364
3 июля, вс
вс300:00+31ссз612176 0.0 1013175
03:00+28с6112250 0.0 1013170
06:00+25с7114065 0.0 1013208
09:00+29ссв683018 0.0 1015417
12:00+35ссв56185 0.0 1014867
15:00+39ссв541315 0.0 10121427
18:00+40с44125 0.0 10111846
21:00+35ссз58165 0.0 101294
4 июля, пн
пн400:00+33с815170 0.0 1012307
03:00+29с813274 0.0 1011292
06:00+26с612365 0.0 1012292
09:00+30ссв810215 0.0 1014480
12:00+37ссв89125 0.0 1012764
15:00+41ссв8895 0.0 10101537
18:00+42ссв8990 0.0 10082169
21:00+37с815120 0.0 1010300
5 июля, вт
вт500:00+33с916175 0.0 1011381
03:00+29с8152787 0.0 1011358
06:00+28с916279 0.0 1011282
09:00+31ссв10152081 0.0 1012497
12:00+38ссв810133 0.0 10131215
15:00+43ссв89915 0.0 10092499
18:00+43с9990 0.0 10072757
21:00+39с121613100 0.0 1010604